Weather History for KTSP - March, 2012

Change the Weather History Date:

Saturday, March 17, 2012

  Actual Average Record
Temperature  
Mean Temperature 39 °F -  
Max Temperature 46 °F 55 °F 62 °F (2015)
Min Temperature 32 °F 34 °F 32 °F (2012)
Degree Days  
Heating Degree Days 26    
Moisture  
Dew Point 36 °F    
Average Humidity 80    
Maximum Humidity 100    
Minimum Humidity 57    
Precipitation  
Precipitation 0.88 in - - ()
Sea Level Pressure  
Sea Level Pressure 29.65 in    
Wind  
Wind Speed 7 mph (WNW)    
Max Wind Speed 24 mph    
Max Gust Speed 31 mph    
Visibility 7 miles    
Events Rain , Snow    
Averages and records for this station are not official NWS values.
T = Trace of Precipitation, MM = Missing Value Source: NWS Daily Summary

Daily Weather History Graph

Daily Weather History Graph

Search for Another Location

Airport or City:

Trip Planner

Search our weather history database for the weather conditions in past years. The results will help you decide how hot, cold, wet, or windy it might be!

Date:

Astronomy

Mar. 17, 2012 Rise Set
Actual Time 7:00 AM PDT 7:03 PM PDT
Civil Twilight 6:35 AM PDT 7:28 PM PDT
Nautical Twilight 6:06 AM PDT 7:58 PM PDT
Astronomical Twilight 5:36 AM PDT 8:28 PM PDT
Moon 3:55 AM PDT (3/17) 2:41 PM PDT (3/17)
Length of Visible Light 12h 53m
Length of Day
12h 02m
Waning Crescent, 22% of the Moon is Illuminated
Mar 17
Waning Crescent
Mar 22
New
Mar 30
First Quarter
Apr 6
Full
Apr 13
Last Quarter

Hourly Weather History & Observations

Time (PDT) Temp. Windchill Dew Point Humidity Pressure Visibility Wind Dir Wind Speed Gust Speed Precip Events Conditions
12:15 AM 44.6 °F 42.2 °F 41.0 °F 87% 29.83 in 8.0 mi West 4.6 mph - N/A   Clear
12:35 AM 41.0 °F - 39.2 °F 93% 29.82 in 7.0 mi Calm Calm - N/A   Clear
12:55 AM 41.0 °F - 41.0 °F 100% 29.82 in 7.0 mi Calm Calm - N/A   Partly Cloudy
1:15 AM 41.0 °F - 39.2 °F 93% 29.81 in 6.0 mi Calm Calm - N/A   Mostly Cloudy
1:35 AM 41.0 °F 39.0 °F 41.0 °F 100% 29.81 in 7.0 mi NE 3.5 mph - N/A   Mostly Cloudy
1:55 AM 42.8 °F 41.1 °F 39.2 °F 87% 29.80 in 10.0 mi East 3.5 mph - N/A   Partly Cloudy
2:15 AM 44.6 °F 43.1 °F 37.4 °F 76% 29.78 in 10.0 mi SE 3.5 mph - N/A   Clear
2:35 AM 44.6 °F 41.4 °F 37.4 °F 76% 29.77 in 10.0 mi East 5.8 mph - N/A   Partly Cloudy
2:55 AM 44.6 °F - 37.4 °F 76% 29.76 in 10.0 mi Calm Calm - N/A   Partly Cloudy
3:15 AM 46.4 °F - 35.6 °F 66% 29.74 in 10.0 mi Calm Calm - N/A   Scattered Clouds
3:35 AM 44.6 °F 42.2 °F 35.6 °F 71% 29.72 in 10.0 mi East 4.6 mph - N/A   Partly Cloudy
3:55 AM 46.4 °F 42.4 °F 33.8 °F 62% 29.70 in 10.0 mi SSW 8.1 mph 16.1 mph N/A   Clear
4:15 AM 46.4 °F 45.2 °F 32.0 °F 57% 29.70 in 10.0 mi West 3.5 mph - N/A   Clear
4:35 AM 46.4 °F 41.1 °F 32.0 °F 57% 29.69 in 10.0 mi SW 11.5 mph 17.3 mph N/A   Partly Cloudy
4:55 AM 46.4 °F 42.4 °F 33.8 °F 62% 29.69 in 10.0 mi WSW 8.1 mph 21.9 mph N/A   Clear
5:15 AM 46.4 °F 41.5 °F 32.0 °F 57% 29.69 in 10.0 mi West 10.4 mph 23.0 mph N/A   Scattered Clouds
5:35 AM 46.4 °F 39.8 °F 35.6 °F 66% 29.68 in 10.0 mi WNW 16.1 mph 20.7 mph N/A   Mostly Cloudy
5:55 AM 44.6 °F 40.2 °F 37.4 °F 76% 29.67 in 7.0 mi WNW 8.1 mph - N/A   Overcast
6:15 AM 44.6 °F 40.7 °F 37.4 °F 76% 29.66 in 7.0 mi West 6.9 mph - N/A Rain Light Rain
6:35 AM 44.6 °F 40.7 °F 39.2 °F 81% 29.64 in 8.0 mi ENE 6.9 mph - N/A   Overcast
6:55 AM 44.6 °F 39.7 °F 39.2 °F 81% 29.62 in 8.0 mi East 9.2 mph - N/A   Overcast
7:15 AM 42.8 °F 37.5 °F 39.2 °F 87% 29.61 in 5.0 mi ENE 9.2 mph - N/A Rain Light Rain
7:35 AM 44.6 °F - 39.2 °F 81% 29.61 in 4.0 mi Calm Calm - N/A Rain Light Rain
7:55 AM 44.6 °F 42.2 °F 39.2 °F 81% 29.60 in 2.5 mi NNE 4.6 mph - 0.02 in Rain Rain
8:15 AM 44.6 °F 40.7 °F 39.2 °F 81% 29.60 in 2.5 mi NNE 6.9 mph - 0.02 in Rain Light Rain
8:35 AM 42.8 °F 37.5 °F 39.2 °F 87% 29.61 in 1.5 mi WNW 9.2 mph - 0.10 in Rain Rain
8:55 AM 41.0 °F 31.6 °F 39.2 °F 93% 29.62 in 1.5 mi NW 20.7 mph 27.6 mph 0.21 in Rain Rain
9:15 AM 37.4 °F 26.9 °F 35.6 °F 93% 29.63 in 1.5 mi NNW 20.7 mph 24.2 mph 0.13 in Rain Heavy Rain
9:35 AM 33.8 °F 27.0 °F 32.0 °F 93% 29.64 in 1.2 mi WNW 8.1 mph - 0.31 in Rain Heavy Rain
9:55 AM 32.0 °F 25.6 °F 32.0 °F 100% 29.65 in 0.5 mi NW 6.9 mph - 0.50 in Snow Snow
10:15 AM 32.0 °F 26.4 °F 32.0 °F 100% 29.63 in 2.5 mi NW 5.8 mph - 0.02 in Rain Light Rain
10:35 AM 35.6 °F - 33.8 °F 93% 29.62 in 4.0 mi Calm Calm - 0.03 in Rain Light Rain
10:55 AM 35.6 °F 32.8 °F 33.8 °F 93% 29.61 in 2.5 mi ESE 3.5 mph - 0.03 in Rain Light Rain
11:15 AM 35.6 °F 29.9 °F 35.6 °F 100% 29.62 in 10.0 mi SE 6.9 mph - N/A   Overcast
11:35 AM 37.4 °F 33.8 °F 37.4 °F 100% 29.60 in 4.0 mi ESE 4.6 mph - N/A Rain Light Rain
11:55 AM 39.2 °F 37.0 °F 37.4 °F 93% 29.59 in 8.0 mi North 3.5 mph - 0.02 in   Mostly Cloudy
12:15 PM 41.0 °F 39.0 °F 39.2 °F 93% 29.59 in 8.0 mi WSW 3.5 mph - 0.01 in   Scattered Clouds
12:35 PM 46.4 °F 40.4 °F 35.6 °F 66% 29.58 in 5.0 mi SSW 13.8 mph 26.5 mph 0.01 in Rain Light Rain
12:55 PM 46.4 °F 39.2 °F 35.6 °F 66% 29.58 in 8.0 mi WSW 18.4 mph 25.3 mph 0.01 in   Scattered Clouds
1:15 PM 46.4 °F 39.2 °F 35.6 °F 66% 29.58 in 8.0 mi WSW 18.4 mph 25.3 mph N/A Rain Light Rain
1:35 PM 46.4 °F 38.7 °F 37.4 °F 71% 29.58 in 10.0 mi SW 20.7 mph 25.3 mph N/A   Mostly Cloudy
1:55 PM 46.4 °F 40.7 °F 35.6 °F 66% 29.57 in 10.0 mi SW 12.7 mph 18.4 mph N/A   Mostly Cloudy
2:15 PM 42.8 °F 35.1 °F 37.4 °F 81% 29.58 in 1.2 mi West 16.1 mph 21.9 mph 0.02 in Rain Light Rain
2:35 PM 42.8 °F 37.5 °F 32.0 °F 66% 29.57 in 9.0 mi West 9.2 mph 27.6 mph 0.03 in   Mostly Cloudy
2:55 PM 44.6 °F 35.7 °F 32.0 °F 61% 29.55 in 9.0 mi WSW 24.2 mph 31.1 mph 0.03 in   Partly Cloudy
3:15 PM 46.4 °F 38.7 °F 32.0 °F 57% 29.55 in 9.0 mi West 20.7 mph 26.5 mph N/A   Partly Cloudy
3:35 PM 39.2 °F 31.2 °F 33.8 °F 81% 29.57 in 5.0 mi NW 13.8 mph 26.5 mph N/A Rain Light Rain
3:55 PM 39.2 °F 31.6 °F 37.4 °F 93% 29.56 in 7.0 mi NNW 12.7 mph 18.4 mph 0.02 in Rain Light Rain
4:15 PM 41.0 °F 33.5 °F 35.6 °F 81% 29.56 in 9.0 mi NW 13.8 mph 19.6 mph N/A   Partly Cloudy
4:35 PM 39.2 °F 31.6 °F 33.8 °F 81% 29.56 in 9.0 mi NW 12.7 mph 16.1 mph N/A   Mostly Cloudy
4:55 PM 37.4 °F 28.5 °F 32.0 °F 81% 29.56 in 4.0 mi NNW 15.0 mph - 0.04 in Rain Light Rain
5:15 PM 35.6 °F 28.0 °F 32.0 °F 87% 29.57 in 8.0 mi NW 10.4 mph - N/A Rain Light Rain
5:35 PM 37.4 °F 29.8 °F 32.0 °F 81% 29.56 in 9.0 mi NNW 11.5 mph - N/A   Overcast
5:55 PM 35.6 °F 26.2 °F 32.0 °F 87% 29.56 in 8.0 mi NNW 15.0 mph 18.4 mph N/A Rain Light Rain
6:15 PM 33.8 °F 24.8 °F 32.0 °F 93% 29.57 in 5.0 mi NW 12.7 mph - 0.01 in Rain Light Rain
6:35 PM 33.8 °F 27.7 °F 32.0 °F 93% 29.56 in 9.0 mi NNW 6.9 mph - 0.02 in Rain Light Rain
6:55 PM 33.8 °F 27.0 °F 32.0 °F 93% 29.57 in 5.0 mi WNW 8.1 mph - 0.03 in Rain Light Rain
7:15 PM 32.0 °F 22.5 °F 30.2 °F 93% 29.58 in 0.8 mi West 12.7 mph 21.9 mph 0.09 in Snow Light Snow
7:35 PM 32.0 °F 25.6 °F 32.0 °F 100% 29.58 in 2.0 mi WNW 6.9 mph - 0.21 in Snow Light Snow
7:55 PM 32.0 °F 23.6 °F 32.0 °F 100% 29.59 in 0.5 mi NW 10.4 mph - 0.75 in Snow Snow
8:15 PM 32.0 °F 25.6 °F 32.0 °F 100% 29.59 in 1.0 mi NW 6.9 mph - 0.26 in Snow Light Snow
8:35 PM 32.0 °F 25.6 °F 32.0 °F 100% 29.59 in 1.2 mi West 6.9 mph - 0.34 in Snow Light Snow
8:55 PM 32.0 °F 26.4 °F 32.0 °F 100% 29.59 in 1.2 mi NW 5.8 mph - 0.41 in Snow Light Snow
9:15 PM 32.0 °F 24.2 °F 32.0 °F 100% 29.60 in 0.5 mi NW 9.2 mph - 0.29 in Snow Snow
9:35 PM 32.0 °F 24.8 °F 32.0 °F 100% 29.61 in 0.5 mi NW 8.1 mph - 0.92 in Snow Snow
9:55 PM 32.0 °F 24.2 °F 32.0 °F 100% 29.61 in 0.8 mi WNW 9.2 mph - 1.84 in Snow Light Snow
10:15 PM 32.0 °F 25.6 °F 32.0 °F 100% 29.61 in 0.8 mi WNW 6.9 mph - 0.19 in Snow Light Snow
10:35 PM 32.0 °F 23.6 °F 32.0 °F 100% 29.61 in 0.5 mi NW 10.4 mph - 0.67 in Snow Snow
10:55 PM 32.0 °F 22.1 °F 30.2 °F 93% 29.61 in 2.5 mi WNW 13.8 mph - 0.99 in Snow Light Snow
11:15 PM 30.2 °F 20.2 °F 30.2 °F 100% 29.62 in 1.0 mi NW 12.7 mph - 0.09 in Snow Light Snow
11:35 PM 30.2 °F 20.2 °F 30.2 °F 100% 29.62 in 0.8 mi WNW 12.7 mph 17.3 mph 0.27 in Snow Light Snow
11:55 PM 30.2 °F 21.3 °F 30.2 °F 100% 29.62 in 0.5 mi WNW 10.4 mph - 0.73 in Snow Snow